DW8590 Weather Reports


time (UTC)temp
F
wind
direction
speed
knots
gust
knots
rain 1hr
in
rain 24hr
in
rain mn
in
humidity
%
barometer
mb
20260503054521 54 183 2.6 6.1 0.00 0.01 0.01 66 1014.0
20260503053013 55 6 1.7 7.8 0.00 0.01 0.01 63 1013.7
20260503051509 55 12 6.1 12.2 0.00 0.01 0.01 66 1013.5
20260503050009 54 29 6.1 9.6 0.00 0.01 0.01 69 1013.7
20260503044509 54 11 6.1 10.4 0.00 0.01 0.01 68 1013.4
20260503043003 55 27 6.1 13.0 0.00 0.01 0.01 66 1013.5
20260503041501 55 11 6.1 12.2 0.00 0.01 0.01 66 1013.5
20260503040100 55 315 6.1 12.2 0.00 0.01 0.01 67 1013.4
20260503034557 56 6 3.5 8.7 0.00 0.01 0.01 65 1013.0
20260503033054 57 303 2.6 9.6 0.00 0.01 0.01 62 1013.1
20260503031552 57 318 2.6 11.3 0.01 0.01 0.01 61 1012.8
20260503030054 57 342 2.6 7.0 0.01 0.01 0.01 65 1012.6
20260503024548 57 333 1.7 5.2 0.01 0.01 0.01 62 1012.7
20260503023047 58 31 3.5 8.7 0.01 0.01 0.01 58 1012.4
20260503021546 61 53 7.8 13.9 0.00 0.00 0.00 51 1012.4
20260503020043 63 303 5.2 12.2 0.00 0.00 0.00 41 1012.2
20260503014538 63 333 2.6 7.8 0.00 0.00 0.00 40 1012.0
20260503013039 65 268 0.0 3.5 0.00 0.00 0.00 38 1011.9
20260503011546 64 97 2.6 9.6 0.00 0.00 0.00 38 1011.8
20260503010038 64 90 4.3 11.3 0.00 0.00 0.00 39 1011.9
20260503004530 64 72 3.5 11.3 0.00 0.00 0.00 41 1012.0
20260503003028 63 64 5.2 15.6 0.00 0.00 0.00 42 1012.0
20260503001528 65 72 1.7 9.6 0.00 0.00 0.00 42 1012.1
20260503000040 67 107 0.0 4.3 0.00 0.00 0.00 33 1011.9
20260502234523 66 107 0.0 3.5 0.00 0.00 0.00 34 1011.8
20260502233020 68 89 1.7 5.2 0.00 0.00 0.00 32 1012.1
20260502231519 69 163 0.9 6.1 0.00 0.00 0.00 29 1011.9
20260502230015 69 160 1.7 7.0 0.00 0.00 0.00 28 1012.0
20260502224511 69 65 4.3 13.0 0.00 0.00 0.00 29 1012.0
20260502223024 72 280 3.5 7.8 0.00 0.00 0.00 28 1012.1
20260502221505 71 188 3.5 7.8 0.00 0.00 0.00 29 1012.3
20260502220004 71 222 0.9 6.1 0.00 0.00 0.00 29 1012.5
20260502214503 71 122 1.7 3.5 0.00 0.00 0.00 29 1012.6
20260502213059 71 146 0.9 5.2 0.00 0.00 0.00 29 1012.7
20260502211555 71 160 0.0 4.3 0.00 0.00 0.00 28 1012.9
20260502210108 71 214 0.0 5.2 0.00 0.00 0.00 28 1013.1
20260502204550 71 250 0.9 6.1 0.00 0.00 0.00 28 1013.2
20260502203044 71 240 1.7 4.3 0.00 0.00 0.00 28 1013.2
20260502201546 70 121 1.7 4.3 0.00 0.00 0.00 28 1013.3
20260502200053 69 244 0.0 3.5 0.00 0.00 0.00 31 1013.5
20260502194539 69 219 0.9 4.3 0.00 0.00 0.00 28 1013.6
20260502193039 69 222 0.0 2.6 0.00 0.00 0.00 28 1013.7
20260502191530 68 262 1.7 4.3 0.00 0.00 0.00 29 1014.0
20260502190040 69 246 2.6 5.2 0.00 0.00 0.00 28 1014.1
20260502184525 70 230 0.9 6.1 0.00 0.00 0.00 28 1014.2
20260502183020 68 214 1.7 6.1 0.00 0.00 0.00 32 1014.4
20260502181516 67 118 1.7 5.2 0.00 0.00 0.00 32 1014.6
20260502170106 62 207 0.9 4.3 0.00 0.00 0.00 45 1015.0
20260502163057 61 280 0.9 2.6 0.00 0.00 0.00 43 1015.1
20260502161549 61 163 0.0 0.9 0.00 0.00 0.00 42 1015.2
20260502151555 53 25 0.0 0.9 0.00 0.00 0.00 50 1015.1
20260502123001 47 321 0.0 0.0 0.00 0.00 0.00 55 1014.1
20260502121559 47 51 0.0 0.0 0.00 0.00 0.00 51 1014.0
20260502114555 47 41 0.0 0.9 0.00 0.00 0.00 50 1014.2
20260502113054 48 41 0.0 0.9 0.00 0.00 0.00 49 1014.3
20260502111550 49 40 0.0 2.6 0.00 0.00 0.00 49 1014.4
20260502110057 50 113 0.0 0.9 0.00 0.00 0.00 49 1014.2
20260502104544 49 92 0.0 0.0 0.00 0.00 0.00 49 1014.1
20260502103042 49 91 0.0 0.9 0.00 0.00 0.00 48 1014.1
20260502101538 49 91 0.0 0.9 0.00 0.00 0.00 48 1014.1
20260502091526 49 113 0.0 0.0 0.00 0.00 0.00 50 1014.3